Regional Weather Roundup
Issued by NWS

Home | Current Version | Previous Version | Text Only | Print | Product List | Glossary On
Versions: 1 2 3 4 5 6 7 8 9 10 11 12 13 14 15 16 17 18 19 20 21 22 23 24 25 26 27 28 29 30 31 32 33 34 35 36 37 38 39 40 41 42 43 44 45 46 47 48 49 50
000
ASUS44 KLIX 060014
RWRLA
LOUISIANA WEATHER ROUNDUP
NATIONAL WEATHER SERVICE NEW ORLEANS LA
600 PM CST SUN DEC 05 2021

NOTE: "FAIR" INDICATES FEW OR NO CLOUDS BELOW 12,000 FEET WITH NO
      SIGNIFICANT WEATHER AND/OR OBSTRUCTIONS TO VISIBILITY.
      SKY/WX - SKY CONDITION AND SIGNIFICANT WEATHER.
      TMP - AIR TEMPERATURE.    DP   - DEWPOINT TEMPERATURE.
      RH  - RELATIVE HUMIDITY.  PRES - PRESSURE.
      HX  - HEAT INDEX.         WCI  - WIND CHILL INDEX.

*  THESE STATIONS ARE NOT NWS OR FAA STATIONS AND ARE NOT UNDER
   NWS QUALITY CONTROL.

LAZ048-061-063-065-066-069-076-077-060100-
SOUTHEAST LOUISIANA

CITY           SKY/WX    TMP DP  RH WIND       PRES   REMARKS
N.O. INTL ARPT MOCLDY    71  65  81 SE8       30.01R
6HR MIN TEMP:  71; 6HR MAX TEMP:  78;

N.O. DWNTWN HE FAIR      72  65  78 S7        30.02S
6HR MIN TEMP:  72; 6HR MAX TEMP:  80;

N.O. LAKEFRONT MOCLDY    72  64  76 SE9       30.01S
6HR MIN TEMP:  72; 6HR MAX TEMP:  80;

RESERVE*       MOCLDY    70  65  84 SE8       30.01R
6HR MIN TEMP:  70; 6HR MAX TEMP:  79;

SLIDELL        CLOUDY    71  64  78 SE7       30.01S
6HR MIN TEMP:  71; 6HR MAX TEMP:  79;

BATON ROUGE    MOCLDY    69  62  78 S5        29.99R
6HR MIN TEMP:  68; 6HR MAX TEMP:  75;

BOOTHVILLE*    NOT AVBL
BELLE CHASSE*  MOCLDY    71  65  81 S13       30.01S
6HR MIN TEMP:  71; 6HR MAX TEMP:  80;

BOGALUSA*      FAIR      72  64  77 SE7       30.02S
6HR MIN TEMP:  72; 6HR MAX TEMP:  80;

GALLIANO*      NOT AVBL
NEW ROADS*     FAIR      68  59  74 S3        29.99S
6HR MIN TEMP:  65; 6HR MAX TEMP:  76;

GONZALES*      MOCLDY    69  67  94 CALM      29.99R
6HR MIN TEMP:  69; 6HR MAX TEMP:  78;

HAMMOND*       NOT AVBL
HOUMA*         PTCLDY    70  66  88 S7        30.01R

$$

LAZ041-044-053-054-060100-
SOUTHWEST LOUISIANA

CITY           SKY/WX    TMP DP  RH WIND       PRES   REMARKS
LAKE CHARLES   MOCLDY    66  65  96 S8        29.96S
6HR MIN TEMP:  66; 6HR MAX TEMP:  76;

LAFAYETTE      CLOUDY    69  63  81 S3        29.98F
6HR MIN TEMP:  69; 6HR MAX TEMP:  77;

PATTERSON      MOCLDY    68  68 100 S3        30.01S
6HR MIN TEMP:  68; 6HR MAX TEMP:  77;

SALT POINT       N/A     67  65  93 SE3       29.99S
6HR MIN TEMP:  66; 6HR MAX TEMP:  74;

NEW IBERIA     CLOUDY    66  62  87 S7        29.99F
6HR MIN TEMP:  66; 6HR MAX TEMP:  76;

CHENAULT AIRPK PTCLDY    66  64  94 S8        29.97R

$$

LAZ027-028-060100-
CENTRAL LOUISIANA

CITY           SKY/WX    TMP DP  RH WIND       PRES   REMARKS
FORT POLK      MOCLDY    69  64  84 S13       29.93S
6HR MIN TEMP:  69; 6HR MAX TEMP:  77;

ALEXANDRIA INT MOCLDY    70  61  73 S7        29.94R HAZE
6HR MIN TEMP:  70; 6HR MAX TEMP:  78;

ALEXANDRIA     CLOUDY    70  60  70 SE5       29.95S
6HR MIN TEMP:  70; 6HR MAX TEMP:  79;


$$

LAZ001-002-060100-
NORTHWEST LOUISIANA

CITY           SKY/WX    TMP DP  RH WIND       PRES   REMARKS
SHREVEPORT     CLOUDY    72  60  66 S12       29.88F
6HR MIN TEMP:  72; 6HR MAX TEMP:  79;

BARKSDALE AFB  MOCLDY    71  61  70 S15       29.88F
6HR MIN TEMP:  71; 6HR MAX TEMP:  78;

DTN SHREVEPORT CLOUDY    72  61  68 S12       29.88F
6HR MIN TEMP:  72; 6HR MAX TEMP:  77;


$$

LAZ014-016-060100-
NORTHEAST LOUISIANA

CITY           SKY/WX    TMP DP  RH WIND       PRES   REMARKS
MONROE         MOCLDY    72  57  59 S7        29.94R
6HR MIN TEMP:  72; 6HR MAX TEMP:  80;

TALLULAH       MOCLDY    71  59  65 S7        29.97R
6HR MIN TEMP:  70; 6HR MAX TEMP:  81;


$$




USA.gov is the U.S. government's official web portal to all federal, state and local government web resources and services.